| time (UTC) | temp F | wind direction | speed knots | gust knots | rain 1hr in | rain 24hr in | rain mn in | humidity % | barometer mb |
| 20260510143955 | 56 | 21 | 16.5 | 28.7 | 0.00 | 0.00 | 0.00 | 74 | 1015.7 |
| 20260510143451 | 56 | 355 | 19.1 | 33.9 | 0.00 | 0.00 | 0.00 | 74 | 1015.7 |
| 20260510142948 | 57 | 11 | 20.0 | 29.5 | 0.00 | 0.00 | 0.00 | 74 | 1015.6 |
| 20260510142444 | 56 | 5 | 19.1 | 35.6 | 0.00 | 0.00 | 0.00 | 75 | 1015.6 |
| 20260510141935 | 57 | 20 | 19.1 | 28.7 | 0.00 | 0.00 | 0.00 | 75 | 1015.4 |
| 20260510141432 | 57 | 20 | 20.0 | 26.1 | 0.00 | 0.00 | 0.00 | 75 | 1015.5 |
| 20260510140930 | 56 | 8 | 20.9 | 30.4 | 0.00 | 0.00 | 0.00 | 76 | 1015.5 |
| 20260510140426 | 56 | 8 | 27.8 | 29.5 | 0.00 | 0.00 | 0.00 | 76 | 1015.5 |
| 20260510135924 | 56 | 359 | 19.1 | 30.4 | 0.00 | 0.00 | 0.00 | 75 | 1015.6 |
| 20260510135421 | 56 | 355 | 21.7 | 35.6 | 0.00 | 0.00 | 0.00 | 75 | 1015.6 |
| 20260510134918 | 56 | 9 | 20.9 | 27.8 | 0.00 | 0.00 | 0.00 | 75 | 1015.5 |
| 20260510134415 | 56 | 352 | 14.8 | 28.7 | 0.00 | 0.00 | 0.00 | 76 | 1015.1 |
| 20260510133911 | 56 | 9 | 20.9 | 33.0 | 0.00 | 0.00 | 0.00 | 76 | 1015.0 |
| 20260510133408 | 57 | 10 | 22.6 | 32.2 | 0.00 | 0.00 | 0.00 | 75 | 1014.7 |
| 20260510132903 | 57 | 2 | 20.9 | 29.5 | 0.00 | 0.00 | 0.00 | 75 | 1014.3 |
| 20260510132401 | 57 | 6 | 19.1 | 31.3 | 0.00 | 0.00 | 0.00 | 74 | 1014.7 |
| 20260510131858 | 57 | 14 | 20.9 | 32.2 | 0.00 | 0.00 | 0.00 | 74 | 1014.2 |
| 20260510131355 | 57 | 339 | 21.7 | 27.8 | 0.00 | 0.00 | 0.00 | 73 | 1014.2 |
| 20260510130852 | 57 | 9 | 20.0 | 26.1 | 0.00 | 0.00 | 0.00 | 73 | 1014.0 |
| 20260510130349 | 57 | 5 | 22.6 | 26.1 | 0.00 | 0.00 | 0.00 | 72 | 1014.0 |
| 20260510125846 | 58 | 11 | 15.6 | 26.1 | 0.00 | 0.00 | 0.00 | 73 | 1014.0 |
| 20260510125342 | 57 | 18 | 15.6 | 24.3 | 0.00 | 0.00 | 0.00 | 73 | 1013.6 |
| 20260510124839 | 57 | 15 | 21.7 | 27.8 | 0.00 | 0.00 | 0.00 | 73 | 1013.4 |
| 20260510124335 | 57 | 11 | 18.2 | 22.6 | 0.00 | 0.00 | 0.00 | 72 | 1013.6 |
| 20260510123831 | 57 | 4 | 19.1 | 29.5 | 0.00 | 0.00 | 0.00 | 72 | 1013.2 |
| 20260510123327 | 57 | 12 | 20.9 | 28.7 | 0.00 | 0.00 | 0.00 | 72 | 1013.1 |
| 20260510122823 | 57 | 26 | 19.1 | 27.8 | 0.00 | 0.00 | 0.00 | 71 | 1013.0 |
| 20260510122320 | 57 | 23 | 16.5 | 20.0 | 0.00 | 0.00 | 0.00 | 71 | 1013.1 |
| 20260510121816 | 57 | 20 | 16.5 | 26.9 | 0.00 | 0.00 | 0.00 | 70 | 1013.1 |
| 20260510121314 | 57 | 4 | 12.2 | 20.9 | 0.00 | 0.00 | 0.00 | 69 | 1013.1 |
| 20260510120811 | 57 | 18 | 14.8 | 27.8 | 0.00 | 0.00 | 0.00 | 70 | 1012.8 |
| 20260510120307 | 57 | 15 | 15.6 | 22.6 | 0.00 | 0.00 | 0.00 | 69 | 1012.5 |
| 20260510115803 | 57 | 15 | 16.5 | 25.2 | 0.00 | 0.00 | 0.00 | 69 | 1012.5 |
| 20260510115305 | 57 | 30 | 13.9 | 24.3 | 0.00 | 0.00 | 0.00 | 69 | 1012.1 |
| 20260510114756 | 57 | 17 | 13.9 | 22.6 | 0.00 | 0.00 | 0.00 | 68 | 1012.0 |
| 20260510114253 | 57 | 20 | 15.6 | 25.2 | 0.00 | 0.00 | 0.00 | 67 | 1011.8 |
| 20260510113748 | 58 | 9 | 15.6 | 20.0 | 0.00 | 0.00 | 0.00 | 67 | 1011.6 |
| 20260510113245 | 58 | 47 | 13.0 | 18.2 | 0.00 | 0.00 | 0.00 | 66 | 1011.6 |
| 20260510112741 | 58 | 43 | 15.6 | 20.0 | 0.00 | 0.00 | 0.00 | 65 | 1011.8 |
| 20260510112238 | 58 | 27 | 7.8 | 16.5 | 0.00 | 0.00 | 0.00 | 64 | 1011.7 |
| 20260510111734 | 58 | 27 | 10.4 | 19.1 | 0.00 | 0.00 | 0.00 | 63 | 1011.3 |
| 20260510111232 | 59 | 36 | 13.9 | 21.7 | 0.00 | 0.00 | 0.00 | 61 | 1010.9 |
| 20260510110731 | 59 | 10 | 14.8 | 22.6 | 0.00 | 0.00 | 0.00 | 61 | 1010.8 |
| 20260510110229 | 60 | 2 | 14.8 | 22.6 | 0.00 | 0.00 | 0.00 | 67 | 1010.5 |
| 20260510105728 | 60 | 6 | 13.9 | 22.6 | 0.00 | 0.00 | 0.00 | 78 | 1010.5 |
| 20260510105224 | 62 | 30 | 13.9 | 20.0 | 0.00 | 0.00 | 0.00 | 79 | 1010.5 |
| 20260510104720 | 62 | 33 | 15.6 | 22.6 | 0.00 | 0.00 | 0.00 | 79 | 1010.5 |
| 20260510104218 | 62 | 33 | 14.8 | 20.9 | 0.00 | 0.00 | 0.00 | 79 | 1010.4 |
| 20260510103714 | 62 | 27 | 20.0 | 24.3 | 0.00 | 0.00 | 0.00 | 79 | 1010.3 |
| 20260510103211 | 62 | 28 | 11.3 | 22.6 | 0.00 | 0.00 | 0.00 | 80 | 1010.5 |
| 20260510102711 | 61 | 15 | 17.4 | 24.3 | 0.00 | 0.00 | 0.00 | 80 | 1010.3 |
| 20260510102207 | 61 | 10 | 14.8 | 19.1 | 0.00 | 0.00 | 0.00 | 80 | 1010.1 |
| 20260510101705 | 61 | 26 | 10.4 | 19.1 | 0.00 | 0.00 | 0.00 | 80 | 1010.3 |
| 20260510101203 | 61 | 32 | 10.4 | 20.9 | 0.00 | 0.00 | 0.00 | 79 | 1009.9 |
| 20260510100658 | 61 | 14 | 9.6 | 15.6 | 0.00 | 0.00 | 0.00 | 78 | 1010.1 |
| 20260510100157 | 61 | 41 | 8.7 | 18.2 | 0.00 | 0.00 | 0.00 | 77 | 1009.9 |
| 20260510095652 | 61 | 7 | 6.1 | 13.9 | 0.00 | 0.00 | 0.00 | 76 | 1009.4 |
| 20260510095147 | 61 | 31 | 7.8 | 13.0 | 0.00 | 0.00 | 0.00 | 75 | 1009.1 |
| 20260510094646 | 62 | 23 | 10.4 | 14.8 | 0.00 | 0.00 | 0.00 | 74 | 1009.0 |
| 20260510094142 | 62 | 44 | 8.7 | 14.8 | 0.00 | 0.00 | 0.00 | 72 | 1009.1 |
| 20260510093638 | 62 | 21 | 10.4 | 12.2 | 0.00 | 0.00 | 0.00 | 71 | 1009.0 |
| 20260510093135 | 62 | 50 | 5.2 | 9.6 | 0.00 | 0.00 | 0.00 | 70 | 1009.2 |
| 20260510092632 | 62 | 32 | 6.1 | 13.9 | 0.00 | 0.00 | 0.00 | 69 | 1009.1 |
| 20260510092127 | 63 | 50 | 7.8 | 13.0 | 0.00 | 0.00 | 0.00 | 67 | 1009.1 |
| 20260510091623 | 64 | 41 | 7.8 | 16.5 | 0.00 | 0.00 | 0.00 | 65 | 1009.1 |
| 20260510091120 | 64 | 54 | 11.3 | 19.1 | 0.00 | 0.00 | 0.00 | 64 | 1008.7 |
| 20260510090617 | 64 | 55 | 13.9 | 18.2 | 0.00 | 0.00 | 0.00 | 62 | 1008.8 |
| 20260510090113 | 64 | 61 | 13.0 | 19.1 | 0.00 | 0.00 | 0.00 | 59 | 1009.0 |
| 20260510085608 | 64 | 60 | 15.6 | 16.5 | 0.00 | 0.00 | 0.00 | 56 | 1008.7 |
| 20260510085104 | 64 | 45 | 11.3 | 15.6 | 0.00 | 0.00 | 0.00 | 54 | 1008.7 |
| 20260510084601 | 64 | 63 | 8.7 | 13.0 | 0.00 | 0.00 | 0.00 | 51 | 1008.7 |
| 20260510084057 | 65 | 56 | 13.0 | 17.4 | 0.00 | 0.00 | 0.00 | 49 | 1008.4 |
| 20260510083554 | 65 | 48 | 11.3 | 18.2 | 0.00 | 0.00 | 0.00 | 47 | 1008.6 |
| 20260510083050 | 66 | 57 | 15.6 | 20.0 | 0.00 | 0.00 | 0.00 | 44 | 1008.0 |
| 20260510082547 | 66 | 62 | 17.4 | 20.0 | 0.00 | 0.00 | 0.00 | 41 | 1008.1 |
| 20260510082042 | 67 | 49 | 14.8 | 19.1 | 0.00 | 0.00 | 0.00 | 39 | 1008.3 |
| 20260510081538 | 67 | 57 | 16.5 | 20.0 | 0.00 | 0.00 | 0.00 | 37 | 1008.4 |
| 20260510081033 | 67 | 49 | 13.0 | 23.5 | 0.00 | 0.00 | 0.00 | 36 | 1008.4 |
| 20260510080533 | 67 | 56 | 17.4 | 20.9 | 0.00 | 0.00 | 0.00 | 34 | 1008.4 |
| 20260510080030 | 67 | 54 | 15.6 | 16.5 | 0.00 | 0.00 | 0.00 | 33 | 1008.1 |
| 20260510075527 | 67 | 59 | 9.6 | 15.6 | 0.00 | 0.00 | 0.00 | 31 | 1008.2 |
| 20260510075024 | 68 | 26 | 10.4 | 15.6 | 0.00 | 0.00 | 0.00 | 31 | 1008.3 |
| 20260510074522 | 68 | 45 | 8.7 | 16.5 | 0.00 | 0.00 | 0.00 | 30 | 1008.3 |
| 20260510074016 | 69 | 57 | 13.9 | 17.4 | 0.00 | 0.00 | 0.00 | 29 | 1008.2 |
| 20260510073513 | 69 | 62 | 13.9 | 17.4 | 0.00 | 0.00 | 0.00 | 28 | 1008.3 |
| 20260510073010 | 70 | 54 | 11.3 | 14.8 | 0.00 | 0.00 | 0.00 | 27 | 1008.4 |
| 20260510072507 | 71 | 59 | 13.0 | 17.4 | 0.00 | 0.00 | 0.00 | 26 | 1008.8 |
| 20260510072002 | 72 | 61 | 15.6 | 20.9 | 0.00 | 0.00 | 0.00 | 25 | 1008.7 |
| 20260510071458 | 71 | 57 | 9.6 | 21.7 | 0.00 | 0.00 | 0.00 | 25 | 1008.6 |
| 20260510070957 | 69 | 58 | 8.7 | 12.2 | 0.00 | 0.00 | 0.00 | 25 | 1008.9 |
| 20260510070454 | 68 | 72 | 7.8 | 11.3 | 0.00 | 0.00 | 0.00 | 25 | 1008.7 |
| 20260510065949 | 67 | 62 | 16.5 | 16.5 | 0.00 | 0.00 | 0.00 | 25 | 1008.6 |
| 20260510065447 | 68 | 61 | 13.9 | 16.5 | 0.00 | 0.00 | 0.00 | 25 | 1008.4 |
| 20260510064942 | 69 | 60 | 7.8 | 10.4 | 0.00 | 0.00 | 0.00 | 25 | 1008.2 |
| 20260510064440 | 70 | 54 | 7.0 | 9.6 | 0.00 | 0.00 | 0.00 | 24 | 1008.2 |
| 20260510063936 | 70 | 61 | 9.6 | 10.4 | 0.00 | 0.00 | 0.00 | 24 | 1007.9 |
| 20260510063432 | 69 | 2 | 8.7 | 11.3 | 0.00 | 0.00 | 0.00 | 24 | 1008.0 |
| 20260510062931 | 69 | 10 | 9.6 | 11.3 | 0.00 | 0.00 | 0.00 | 24 | 1008.3 |
| 20260510062431 | 69 | 329 | 14.8 | 18.2 | 0.00 | 0.00 | 0.00 | 24 | 1008.1 |
| 20260510061926 | 74 | 60 | 2.6 | 3.5 | 0.00 | 0.00 | 0.00 | 21 | 1007.8 |
| 20260510061423 | 73 | 61 | 1.7 | 1.7 | 0.00 | 0.00 | 0.00 | 22 | 1007.8 |
| 20260510060919 | 72 | 63 | 3.5 | 3.5 | 0.00 | 0.00 | 0.00 | 22 | 1007.8 |
| 20260510060416 | 73 | 81 | 2.6 | 6.1 | 0.00 | 0.00 | 0.00 | 21 | 1007.5 |
| 20260510055913 | 74 | 127 | 4.3 | 4.3 | 0.00 | 0.00 | 0.00 | 21 | 1007.3 |
| 20260510055408 | 75 | 126 | 7.0 | 9.6 | 0.00 | 0.00 | 0.00 | 20 | 1007.3 |
| 20260510054907 | 75 | 160 | 4.3 | 5.2 | 0.00 | 0.00 | 0.00 | 20 | 1007.3 |
| 20260510054402 | 75 | 240 | 3.5 | 6.1 | 0.00 | 0.00 | 0.00 | 20 | 1007.5 |
| 20260510053857 | 73 | 153 | 4.3 | 8.7 | 0.00 | 0.00 | 0.00 | 22 | 1007.1 |
| 20260510053353 | 75 | 299 | 3.5 | 3.5 | 0.00 | 0.00 | 0.00 | 21 | 1007.4 |
| 20260510052849 | 75 | 45 | 1.7 | 2.6 | 0.00 | 0.00 | 0.00 | 20 | 1007.3 |
| 20260510052345 | 74 | 96 | 1.7 | 2.6 | 0.00 | 0.00 | 0.00 | 21 | 1007.4 |
| 20260510051841 | 76 | 257 | 2.6 | 4.3 | 0.00 | 0.00 | 0.00 | 20 | 1007.4 |
| 20260510051338 | 77 | 1 | 2.6 | 4.3 | 0.00 | 0.00 | 0.00 | 19 | 1007.5 |
| 20260510050835 | 77 | 203 | 4.3 | 11.3 | 0.00 | 0.00 | 0.00 | 20 | 1007.5 |
| 20260510050332 | 80 | 70 | 11.3 | 12.2 | 0.00 | 0.00 | 0.00 | 17 | 1007.4 |
| 20260510045829 | 77 | 70 | 9.6 | 11.3 | 0.00 | 0.00 | 0.00 | 19 | 1007.5 |
| 20260510045326 | 76 | 78 | 7.0 | 9.6 | 0.00 | 0.00 | 0.00 | 20 | 1007.7 |
| 20260510044823 | 76 | 67 | 6.1 | 7.8 | 0.00 | 0.00 | 0.00 | 20 | 1007.7 |
| 20260510044320 | 76 | 80 | 6.1 | 7.8 | 0.00 | 0.00 | 0.00 | 19 | 1007.8 |
| 20260510043816 | 75 | 74 | 5.2 | 6.1 | 0.00 | 0.00 | 0.00 | 20 | 1007.7 |
| 20260510043312 | 75 | 12 | 5.2 | 7.8 | 0.00 | 0.00 | 0.00 | 20 | 1007.9 |
| 20260510042810 | 74 | 47 | 7.8 | 9.6 | 0.00 | 0.00 | 0.00 | 21 | 1007.9 |
| 20260510042307 | 73 | 10 | 11.3 | 11.3 | 0.00 | 0.00 | 0.00 | 21 | 1007.8 |
| 20260510041802 | 73 | 17 | 5.2 | 5.2 | 0.00 | 0.00 | 0.00 | 21 | 1007.4 |
| 20260510041259 | 73 | 26 | 3.5 | 4.3 | 0.00 | 0.00 | 0.00 | 21 | 1007.3 |
| 20260510040757 | 72 | 9 | 2.6 | 2.6 | 0.00 | 0.00 | 0.00 | 22 | 1007.3 |
| 20260510040248 | 73 | 294 | 0.0 | 0.9 | 0.00 | 0.00 | 0.00 | 21 | 1007.3 |
| 20260510035743 | 72 | 302 | 1.7 | 1.7 | 0.00 | 0.00 | 0.00 | 22 | 1007.2 |
| 20260510035239 | 73 | 305 | 0.0 | 2.6 | 0.00 | 0.00 | 0.00 | 21 | 1007.0 |
| 20260510034735 | 72 | 295 | 1.7 | 2.6 | 0.00 | 0.00 | 0.00 | 21 | 1006.7 |
| 20260510034233 | 73 | 195 | 0.0 | 0.0 | 0.00 | 0.00 | 0.00 | 21 | 1007.0 |
| 20260510033729 | 73 | 179 | 1.7 | 3.5 | 0.00 | 0.00 | 0.00 | 21 | 1007.1 |
| 20260510033227 | 73 | 208 | 3.5 | 4.3 | 0.00 | 0.00 | 0.00 | 21 | 1007.0 |
| 20260510032723 | 72 | 225 | 4.3 | 4.3 | 0.00 | 0.00 | 0.00 | 22 | 1006.9 |
| 20260510032219 | 73 | 208 | 3.5 | 4.3 | 0.00 | 0.00 | 0.00 | 22 | 1006.7 |
| 20260510031714 | 73 | 207 | 4.3 | 5.2 | 0.00 | 0.00 | 0.00 | 21 | 1006.5 |
| 20260510031210 | 75 | 223 | 5.2 | 6.1 | 0.00 | 0.00 | 0.00 | 20 | 1006.7 |
| 20260510030709 | 74 | 226 | 3.5 | 4.3 | 0.00 | 0.00 | 0.00 | 20 | 1006.2 |
| 20260510030208 | 76 | 243 | 3.5 | 3.5 | 0.00 | 0.00 | 0.00 | 20 | 1006.4 |
| 20260510025705 | 76 | 253 | 1.7 | 2.6 | 0.00 | 0.00 | 0.00 | 20 | 1006.3 |
| 20260510025202 | 77 | 292 | 1.7 | 2.6 | 0.00 | 0.00 | 0.00 | 19 | 1006.5 |
| 20260510024659 | 77 | 283 | 2.6 | 3.5 | 0.00 | 0.00 | 0.00 | 18 | 1006.3 |
| 20260510024155 | 77 | 257 | 2.6 | 3.5 | 0.00 | 0.00 | 0.00 | 18 | 1006.3 |
| 20260510023651 | 78 | 215 | 3.5 | 3.5 | 0.00 | 0.00 | 0.00 | 18 | 1006.1 |
| 20260510023148 | 78 | 200 | 4.3 | 7.0 | 0.00 | 0.00 | 0.00 | 17 | 1006.2 |
| 20260510022643 | 79 | 210 | 8.7 | 11.3 | 0.00 | 0.00 | 0.00 | 17 | 1006.2 |
| 20260510022139 | 78 | 204 | 7.0 | 7.8 | 0.00 | 0.00 | 0.00 | 17 | 1005.8 |
| 20260510021634 | 78 | 204 | 6.1 | 7.8 | 0.00 | 0.00 | 0.00 | 17 | 1005.6 |
| 20260510021132 | 78 | 216 | 5.2 | 7.0 | 0.00 | 0.00 | 0.00 | 17 | 1005.8 |
| 20260510020626 | 77 | 249 | 7.0 | 7.8 | 0.00 | 0.00 | 0.00 | 17 | 1005.8 |
| 20260510020121 | 79 | 225 | 5.2 | 6.1 | 0.00 | 0.00 | 0.00 | 16 | 1005.6 |
| 20260510015618 | 80 | 242 | 6.1 | 8.7 | 0.00 | 0.00 | 0.00 | 16 | 1005.6 |
| 20260510015114 | 82 | 234 | 9.6 | 15.6 | 0.00 | 0.00 | 0.00 | 15 | 1005.7 |
| 20260510014610 | 79 | 244 | 9.6 | 10.4 | 0.00 | 0.00 | 0.00 | 17 | 1005.6 |
| 20260510014108 | 81 | 245 | 9.6 | 11.3 | 0.00 | 0.00 | 0.00 | 15 | 1005.4 |
| 20260510013601 | 82 | 254 | 8.7 | 11.3 | 0.00 | 0.00 | 0.00 | 15 | 1005.7 |
| 20260510013057 | 84 | 260 | 13.0 | 16.5 | 0.00 | 0.00 | 0.00 | 14 | 1005.2 |
| 20260510012551 | 85 | 280 | 17.4 | 23.5 | 0.00 | 0.00 | 0.00 | 13 | 1005.2 |
| 20260510012048 | 84 | 273 | 13.0 | 18.2 | 0.00 | 0.00 | 0.00 | 13 | 1005.3 |
| 20260510011548 | 84 | 243 | 25.2 | 28.7 | 0.00 | 0.00 | 0.00 | 14 | 1005.4 |
| 20260510011044 | 84 | 245 | 22.6 | 29.5 | 0.00 | 0.00 | 0.00 | 13 | 1005.3 |
| 20260510010541 | 82 | 244 | 13.0 | 19.1 | 0.00 | 0.00 | 0.00 | 15 | 1005.5 |
| 20260510010038 | 82 | 231 | 4.3 | 6.1 | 0.00 | 0.00 | 0.00 | 16 | 1005.5 |
| 20260510005533 | 82 | 229 | 7.8 | 8.7 | 0.00 | 0.00 | 0.00 | 16 | 1005.7 |
| 20260510005031 | 83 | 233 | 8.7 | 11.3 | 0.00 | 0.00 | 0.00 | 15 | 1005.5 |
| 20260510004529 | 82 | 230 | 7.8 | 9.6 | 0.00 | 0.00 | 0.00 | 16 | 1005.6 |
| 20260510004026 | 84 | 239 | 9.6 | 11.3 | 0.00 | 0.00 | 0.00 | 15 | 1005.7 |
| 20260510003517 | 84 | 256 | 7.0 | 7.8 | 0.00 | 0.00 | 0.00 | 15 | 1005.6 |
| 20260510003013 | 84 | 267 | 7.8 | 13.0 | 0.00 | 0.00 | 0.00 | 14 | 1005.4 |
| 20260510002508 | 85 | 280 | 3.5 | 14.8 | 0.00 | 0.00 | 0.00 | 14 | 1005.4 |
| 20260510002006 | 86 | 271 | 13.0 | 25.2 | 0.00 | 0.00 | 0.00 | 14 | 1005.8 |
| 20260510001503 | 86 | 227 | 9.6 | 16.5 | 0.00 | 0.00 | 0.00 | 15 | 1005.7 |
| 20260510001001 | 86 | 230 | 20.0 | 20.0 | 0.00 | 0.00 | 0.00 | 15 | 1005.7 |
| 20260510000456 | 85 | 240 | 19.1 | 26.9 | 0.00 | 0.00 | 0.00 | 15 | 1005.6 |
| 20260509235953 | 85 | 233 | 23.5 | 27.8 | 0.00 | 0.00 | 0.00 | 15 | 1005.5 |
| 20260509235450 | 86 | 189 | 8.7 | 15.6 | 0.00 | 0.00 | 0.00 | 14 | 1005.2 |
| 20260509234946 | 86 | 233 | 7.0 | 9.6 | 0.00 | 0.00 | 0.00 | 14 | 1005.6 |
| 20260509234443 | 86 | 206 | 2.6 | 7.8 | 0.00 | 0.00 | 0.00 | 14 | 1005.4 |
| 20260509233941 | 86 | 225 | 11.3 | 19.1 | 0.00 | 0.00 | 0.00 | 14 | 1005.4 |
| 20260509233438 | 87 | 291 | 25.2 | 27.8 | 0.00 | 0.00 | 0.00 | 13 | 1005.5 |
| 20260509232934 | 87 | 220 | 15.6 | 18.2 | 0.00 | 0.00 | 0.00 | 13 | 1005.3 |
| 20260509232432 | 87 | 247 | 10.4 | 15.6 | 0.00 | 0.00 | 0.00 | 14 | 1005.4 |
| 20260509231927 | 87 | 245 | 10.4 | 12.2 | 0.00 | 0.00 | 0.00 | 14 | 1005.3 |
| 20260509231424 | 87 | 231 | 10.4 | 19.1 | 0.00 | 0.00 | 0.00 | 14 | 1005.4 |
| 20260509230923 | 87 | 219 | 16.5 | 26.1 | 0.00 | 0.00 | 0.00 | 13 | 1005.6 |
| 20260509230419 | 90 | 229 | 23.5 | 25.2 | 0.00 | 0.00 | 0.00 | 13 | 1005.3 |
| 20260509225915 | 90 | 249 | 14.8 | 19.1 | 0.00 | 0.00 | 0.00 | 12 | 1005.4 |
| 20260509225412 | 88 | 252 | 15.6 | 26.1 | 0.00 | 0.00 | 0.00 | 12 | 1005.4 |
| 20260509224908 | 89 | 254 | 14.8 | 19.1 | 0.00 | 0.00 | 0.00 | 13 | 1005.6 |
| 20260509224403 | 89 | 232 | 13.0 | 17.4 | 0.00 | 0.00 | 0.00 | 12 | 1005.6 |
| 20260509223900 | 89 | 231 | 11.3 | 15.6 | 0.00 | 0.00 | 0.00 | 12 | 1005.4 |
| 20260509223351 | 87 | 286 | 9.6 | 13.9 | 0.00 | 0.00 | 0.00 | 12 | 1005.5 |
| 20260509222848 | 87 | 316 | 7.8 | 15.6 | 0.00 | 0.00 | 0.00 | 13 | 1005.3 |
| 20260509222343 | 87 | 304 | 7.0 | 17.4 | 0.00 | 0.00 | 0.00 | 12 | 1005.7 |
| 20260509221838 | 87 | 302 | 9.6 | 19.1 | 0.00 | 0.00 | 0.00 | 12 | 1005.8 |
| 20260509221336 | 87 | 358 | 5.2 | 7.8 | 0.00 | 0.00 | 0.00 | 12 | 1005.7 |
| 20260509220831 | 87 | 306 | 5.2 | 9.6 | 0.00 | 0.00 | 0.00 | 12 | 1005.8 |
| 20260509220328 | 87 | 337 | 7.0 | 9.6 | 0.00 | 0.00 | 0.00 | 12 | 1005.6 |
| 20260509215823 | 87 | 279 | 10.4 | 14.8 | 0.00 | 0.00 | 0.00 | 12 | 1005.8 |
| 20260509215320 | 87 | 319 | 13.0 | 16.5 | 0.00 | 0.00 | 0.00 | 12 | 1005.8 |
| 20260509214817 | 87 | 319 | 8.7 | 12.2 | 0.00 | 0.00 | 0.00 | 12 | 1006.1 |
| 20260509214314 | 89 | 317 | 11.3 | 17.4 | 0.00 | 0.00 | 0.00 | 11 | 1006.2 |
| 20260509213811 | 88 | 273 | 9.6 | 17.4 | 0.00 | 0.00 | 0.00 | 12 | 1006.3 |
| 20260509213307 | 87 | 277 | 14.8 | 18.2 | 0.00 | 0.00 | 0.00 | 12 | 1006.2 |
| 20260509212804 | 88 | 259 | 14.8 | 15.6 | 0.00 | 0.00 | 0.00 | 12 | 1006.3 |
| 20260509212305 | 90 | 311 | 19.1 | 21.7 | 0.00 | 0.00 | 0.00 | 11 | 1006.6 |
| 20260509211757 | 89 | 293 | 14.8 | 20.0 | 0.00 | 0.00 | 0.00 | 11 | 1006.5 |
| 20260509211253 | 89 | 286 | 20.0 | 28.7 | 0.00 | 0.00 | 0.00 | 11 | 1006.5 |
| 20260509210750 | 90 | 288 | 22.6 | 26.1 | 0.00 | 0.00 | 0.00 | 11 | 1006.6 |
| 20260509210248 | 87 | 256 | 15.6 | 22.6 | 0.00 | 0.00 | 0.00 | 12 | 1007.0 |
| 20260509205747 | 89 | 283 | 11.3 | 18.2 | 0.00 | 0.00 | 0.00 | 11 | 1007.2 |
| 20260509205242 | 87 | 319 | 13.0 | 15.6 | 0.00 | 0.00 | 0.00 | 12 | 1007.0 |
| 20260509204738 | 88 | 239 | 20.0 | 22.6 | 0.00 | 0.00 | 0.00 | 11 | 1007.1 |
| 20260509204235 | 88 | 272 | 16.5 | 20.0 | 0.00 | 0.00 | 0.00 | 12 | 1007.1 |
| 20260509203731 | 87 | 281 | 9.6 | 20.9 | 0.00 | 0.00 | 0.00 | 12 | 1007.3 |
| 20260509203229 | 87 | 274 | 4.3 | 14.8 | 0.00 | 0.00 | 0.00 | 13 | 1007.2 |
| 20260509202725 | 88 | 306 | 13.0 | 17.4 | 0.00 | 0.00 | 0.00 | 12 | 1007.4 |
| 20260509202221 | 88 | 321 | 15.6 | 22.6 | 0.00 | 0.00 | 0.00 | 12 | 1007.4 |
| 20260509201715 | 88 | 312 | 13.9 | 20.0 | 0.00 | 0.00 | 0.00 | 12 | 1007.7 |
| 20260509201212 | 87 | 279 | 16.5 | 24.3 | 0.00 | 0.00 | 0.00 | 12 | 1007.7 |
| 20260509200709 | 87 | 278 | 13.0 | 26.1 | 0.00 | 0.00 | 0.00 | 12 | 1007.8 |
| 20260509200203 | 86 | 310 | 13.0 | 14.8 | 0.00 | 0.00 | 0.00 | 12 | 1007.9 |
| 20260509195659 | 87 | 279 | 9.6 | 21.7 | 0.00 | 0.00 | 0.00 | 12 | 1008.0 |
| 20260509195155 | 87 | 292 | 15.6 | 25.2 | 0.00 | 0.00 | 0.00 | 12 | 1007.9 |
| 20260509194649 | 85 | 304 | 10.4 | 12.2 | 0.00 | 0.00 | 0.00 | 14 | 1007.9 |
| 20260509194146 | 86 | 281 | 13.0 | 17.4 | 0.00 | 0.00 | 0.00 | 14 | 1008.1 |
| 20260509193642 | 87 | 253 | 18.2 | 24.3 | 0.00 | 0.00 | 0.00 | 14 | 1008.1 |
| 20260509193138 | 86 | 255 | 13.9 | 22.6 | 0.00 | 0.00 | 0.00 | 13 | 1008.1 |
| 20260509192635 | 87 | 277 | 10.4 | 15.6 | 0.00 | 0.00 | 0.00 | 14 | 1008.1 |
| 20260509192129 | 86 | 249 | 8.7 | 19.1 | 0.00 | 0.00 | 0.00 | 13 | 1008.2 |
| 20260509191624 | 86 | 285 | 17.4 | 21.7 | 0.00 | 0.00 | 0.00 | 12 | 1008.2 |
| 20260509191121 | 87 | 259 | 21.7 | 21.7 | 0.00 | 0.00 | 0.00 | 15 | 1008.2 |
| 20260509190617 | 87 | 257 | 9.6 | 16.5 | 0.00 | 0.00 | 0.00 | 15 | 1008.6 |
| 20260509190115 | 87 | 266 | 20.9 | 22.6 | 0.00 | 0.00 | 0.00 | 15 | 1008.6 |
| 20260509185612 | 86 | 268 | 10.4 | 14.8 | 0.00 | 0.00 | 0.00 | 16 | 1008.6 |
| 20260509185108 | 86 | 297 | 8.7 | 22.6 | 0.00 | 0.00 | 0.00 | 15 | 1008.7 |
| 20260509184607 | 85 | 267 | 12.2 | 17.4 | 0.00 | 0.00 | 0.00 | 16 | 1008.4 |
| 20260509184103 | 85 | 260 | 17.4 | 21.7 | 0.00 | 0.00 | 0.00 | 15 | 1008.8 |
| 20260509183558 | 85 | 252 | 18.2 | 23.5 | 0.00 | 0.00 | 0.00 | 16 | 1008.8 |
| 20260509183054 | 84 | 262 | 18.2 | 20.9 | 0.00 | 0.00 | 0.00 | 16 | 1009.2 |
| 20260509182551 | 84 | 267 | 15.6 | 24.3 | 0.00 | 0.00 | 0.00 | 16 | 1009.0 |
| 20260509182048 | 84 | 279 | 14.8 | 16.5 | 0.00 | 0.00 | 0.00 | 17 | 1009.4 |
| 20260509181546 | 84 | 240 | 17.4 | 20.9 | 0.00 | 0.00 | 0.00 | 17 | 1009.2 |
| 20260509181043 | 83 | 269 | 12.2 | 20.0 | 0.00 | 0.00 | 0.00 | 17 | 1009.2 |
| 20260509180538 | 83 | 248 | 17.4 | 20.9 | 0.00 | 0.00 | 0.00 | 17 | 1009.2 |
| 20260509180036 | 84 | 264 | 13.0 | 21.7 | 0.00 | 0.00 | 0.00 | 17 | 1009.5 |
| 20260509175531 | 83 | 252 | 9.6 | 19.1 | 0.00 | 0.00 | 0.00 | 18 | 1009.4 |
| 20260509175029 | 84 | 255 | 13.9 | 19.1 | 0.00 | 0.00 | 0.00 | 19 | 1009.0 |
| 20260509174526 | 84 | 247 | 12.2 | 22.6 | 0.00 | 0.00 | 0.00 | 19 | 1009.6 |
| 20260509174020 | 82 | 253 | 18.2 | 20.9 | 0.00 | 0.00 | 0.00 | 21 | 1009.5 |
| 20260509173515 | 81 | 255 | 12.2 | 14.8 | 0.00 | 0.00 | 0.00 | 23 | 1009.9 |
| 20260509173011 | 82 | 254 | 12.2 | 18.2 | 0.00 | 0.00 | 0.00 | 22 | 1009.9 |
| 20260509172508 | 80 | 247 | 13.9 | 19.1 | 0.00 | 0.00 | 0.00 | 23 | 1009.8 |
| 20260509172004 | 80 | 249 | 15.6 | 16.5 | 0.00 | 0.00 | 0.00 | 24 | 1010.0 |
| 20260509171500 | 79 | 232 | 11.3 | 19.1 | 0.00 | 0.00 | 0.00 | 24 | 1010.3 |
| 20260509170957 | 79 | 244 | 20.0 | 20.9 | 0.00 | 0.00 | 0.00 | 23 | 1010.3 |
| 20260509170452 | 80 | 245 | 14.8 | 20.9 | 0.00 | 0.00 | 0.00 | 23 | 1010.1 |
| 20260509165948 | 79 | 249 | 14.8 | 26.1 | 0.00 | 0.00 | 0.00 | 24 | 1010.3 |
| 20260509165447 | 77 | 238 | 17.4 | 21.7 | 0.00 | 0.00 | 0.00 | 25 | 1010.3 |
| 20260509164943 | 76 | 228 | 10.4 | 20.9 | 0.00 | 0.00 | 0.00 | 27 | 1010.3 |
| 20260509164439 | 77 | 237 | 16.5 | 22.6 | 0.00 | 0.00 | 0.00 | 26 | 1010.8 |
| 20260509163935 | 76 | 243 | 19.1 | 20.9 | 0.00 | 0.00 | 0.00 | 26 | 1010.6 |
| 20260509163433 | 76 | 250 | 17.4 | 22.6 | 0.00 | 0.00 | 0.00 | 27 | 1010.5 |
| 20260509162932 | 76 | 249 | 14.8 | 23.5 | 0.00 | 0.00 | 0.00 | 27 | 1010.5 |
| 20260509162431 | 76 | 242 | 13.0 | 22.6 | 0.00 | 0.00 | 0.00 | 26 | 1010.5 |
| 20260509161926 | 76 | 248 | 16.5 | 24.3 | 0.00 | 0.00 | 0.00 | 26 | 1010.5 |
| 20260509161423 | 75 | 244 | 17.4 | 19.1 | 0.00 | 0.00 | 0.00 | 27 | 1010.3 |
| 20260509160918 | 76 | 244 | 18.2 | 19.1 | 0.00 | 0.00 | 0.00 | 27 | 1010.3 |
| 20260509160414 | 75 | 217 | 14.8 | 20.9 | 0.00 | 0.00 | 0.00 | 28 | 1010.0 |
| 20260509155910 | 75 | 221 | 10.4 | 18.2 | 0.00 | 0.00 | 0.00 | 28 | 1010.0 |
| 20260509155407 | 75 | 200 | 10.4 | 17.4 | 0.00 | 0.00 | 0.00 | 28 | 1010.1 |
| 20260509154903 | 74 | 210 | 13.0 | 14.8 | 0.00 | 0.00 | 0.00 | 29 | 1010.1 |
| 20260509154359 | 73 | 208 | 13.0 | 21.7 | 0.00 | 0.00 | 0.00 | 29 | 1010.0 |
| 20260509153856 | 73 | 203 | 13.9 | 17.4 | 0.00 | 0.00 | 0.00 | 31 | 1010.1 |
| 20260509153354 | 72 | 184 | 12.2 | 18.2 | 0.00 | 0.00 | 0.00 | 31 | 1010.3 |
| 20260509152850 | 72 | 194 | 12.2 | 19.1 | 0.00 | 0.00 | 0.00 | 32 | 1010.5 |
| 20260509152346 | 72 | 193 | 17.4 | 18.2 | 0.00 | 0.00 | 0.00 | 32 | 1010.4 |
| 20260509151844 | 71 | 189 | 13.0 | 17.4 | 0.00 | 0.00 | 0.00 | 33 | 1010.5 |
| 20260509151339 | 71 | 165 | 15.6 | 17.4 | 0.00 | 0.00 | 0.00 | 34 | 1010.5 |
| 20260509150838 | 71 | 189 | 13.0 | 19.1 | 0.00 | 0.00 | 0.00 | 34 | 1010.4 |
| 20260509150336 | 69 | 180 | 11.3 | 16.5 | 0.00 | 0.00 | 0.00 | 36 | 1010.5 |
| 20260509145833 | 69 | 185 | 11.3 | 19.1 | 0.00 | 0.00 | 0.00 | 36 | 1010.7 |
| 20260509145327 | 68 | 152 | 10.4 | 15.6 | 0.00 | 0.00 | 0.00 | 38 | 1010.9 |
| 20260509144824 | 67 | 151 | 9.6 | 17.4 | 0.00 | 0.00 | 0.00 | 39 | 1010.8 |
| 20260509144321 | 68 | 144 | 11.3 | 16.5 | 0.00 | 0.00 | 0.00 | 39 | 1010.8 |